Greensboro, NC

6:03 PM EDT on July 26, 2017 (GMT -0400)
Piedmont Triad International

Weather History for KGSO - December, 2014

Change the Weather History Date:

Thursday, December 4, 2014

  Actual Average Record
Temperature  
Mean Temperature 47 °F 44 °F  
Max Temperature 54 °F 54 °F 73 °F (1998)
Min Temperature 40 °F 34 °F 13 °F (1940)
Degree Days  
Heating Degree Days 18 21  
Month to date heating degree days 60 82  
Since 1 July heating degree days 810 762  
Cooling Degree Days 0 0  
Month to date cooling degree days 0 0  
Year to date cooling degree days 1499 1483  
Moisture  
Dew Point 36 °F    
Average Humidity 0    
Maximum Humidity 0    
Minimum Humidity 0    
Precipitation  
Precipitation 0.00 in 0.10 in 2.63 in (1962)
Month to date precipitation T 0.41  
Year to date precipitation 34.15 39.63  
Snow  
Snow 0.00 in 0.00 in 3.50 in (2002)
Month to date snowfall 0.0 0.0  
Since 1 July snowfall 0.0 0.1  
Snow Depth 0.00 in    
Sea Level Pressure  
Sea Level Pressure 30.35 in    
Wind  
Wind Speed 6 mph (ENE)    
Max Wind Speed 12 mph    
Max Gust Speed 14 mph    
Visibility 10 miles    
Events      
T = Trace of Precipitation, MM = Missing Value Source: NWS Daily Summary

Daily Weather History Graph

Daily Weather History Graph

Search for Another Location

Airport or City:

Trip Planner

Search our weather history database for the weather conditions in past years. The results will help you decide how hot, cold, wet, or windy it might be!

Date:

Astronomy

Dec. 04, 2014 Rise Set
Actual Time 7:14 AM EST 5:05 PM EST
Civil Twilight 6:46 AM EST 5:33 PM EST
Nautical Twilight 6:14 AM EST 6:05 PM EST
Astronomical Twilight 5:43 AM EST 6:36 PM EST
Moon 4:02 PM EST (12/4) 5:08 AM EST (12/4)
Length of Visible Light 10h 46m
Length of Day
9h 50m
Waxing Gibbous, 96% of the Moon is Illuminated
Dec 4
Waxing Gibbous
Dec 6
Full
Dec 14
Last Quarter
Dec 21
New
Dec 28
First Quarter

Hourly Weather History & Observations

Time (EST) Temp. Windchill Dew Point Humidity Pressure Visibility Wind Dir Wind Speed Gust Speed Precip Events Conditions
12:54 AM 48.2 °F - 42.8 °F 82% 30.26 in 10.0 mi NE 8.1 mph - N/A   Mostly Cloudy
1:54 AM 46.9 °F - 39.9 °F 77% 30.28 in 10.0 mi NNE 5.8 mph - N/A   Overcast
2:54 AM 45.0 °F 42.6 °F 39.0 °F 80% 30.28 in 10.0 mi ENE 4.6 mph - N/A   Mostly Cloudy
3:54 AM 45.0 °F 41.8 °F 39.0 °F 80% 30.30 in 10.0 mi NNE 5.8 mph - N/A   Partly Cloudy
4:54 AM 41.0 °F - 36.0 °F 82% 30.32 in 10.0 mi Calm Calm - N/A   Partly Cloudy
5:54 AM 42.1 °F 39.2 °F 36.0 °F 79% 30.32 in 10.0 mi ESE 4.6 mph - N/A   Scattered Clouds
6:54 AM 43.0 °F 40.3 °F 35.1 °F 74% 30.35 in 10.0 mi NNE 4.6 mph - N/A   Mostly Cloudy
7:54 AM 43.0 °F 40.3 °F 35.1 °F 74% 30.37 in 10.0 mi NNE 4.6 mph - N/A   Mostly Cloudy
8:54 AM 45.0 °F 41.2 °F 36.0 °F 71% 30.38 in 10.0 mi ENE 6.9 mph - N/A   Mostly Cloudy
9:54 AM 48.0 °F - 39.0 °F 71% 30.39 in 10.0 mi East 8.1 mph - N/A   Mostly Cloudy
10:54 AM 50.0 °F - 39.9 °F 68% 30.39 in 10.0 mi ENE 5.8 mph - N/A   Mostly Cloudy
11:54 AM 52.0 °F - 39.9 °F 63% 30.35 in 10.0 mi ENE 5.8 mph - N/A   Mostly Cloudy
12:54 PM 53.1 °F - 39.0 °F 59% 30.35 in 10.0 mi Variable 6.9 mph - N/A   Overcast
1:54 PM 53.1 °F - 37.9 °F 57% 30.32 in 10.0 mi East 6.9 mph - N/A   Overcast
2:54 PM 53.1 °F - 37.9 °F 57% 30.32 in 10.0 mi East 6.9 mph - N/A   Overcast
3:54 PM 52.0 °F - 37.0 °F 57% 30.33 in 10.0 mi East 6.9 mph - N/A   Overcast
4:54 PM 51.1 °F - 36.0 °F 56% 30.35 in 10.0 mi ENE 9.2 mph - N/A   Overcast
5:54 PM 48.0 °F - 33.1 °F 56% 30.37 in 10.0 mi ENE 9.2 mph - N/A   Overcast
6:54 PM 48.0 °F - 32.0 °F 54% 30.39 in 10.0 mi NE 5.8 mph - N/A   Overcast
7:54 PM 45.0 °F 39.3 °F 32.0 °F 60% 30.39 in 10.0 mi ENE 11.5 mph - N/A   Overcast
8:54 PM 43.0 °F 39.5 °F 32.0 °F 65% 30.40 in 10.0 mi ENE 5.8 mph - N/A   Mostly Cloudy
9:54 PM 42.1 °F 38.4 °F 32.0 °F 67% 30.41 in 10.0 mi ENE 5.8 mph - N/A   Mostly Cloudy
10:54 PM 43.0 °F 39.5 °F 32.0 °F 65% 30.41 in 10.0 mi ENE 5.8 mph - N/A   Mostly Cloudy
11:54 PM 43.0 °F 40.3 °F 32.0 °F 65% 30.41 in 10.0 mi NE 4.6 mph - N/A   Mostly Cloudy